Weather in Dortmund

Germany     51°31′24″N   7°28′13″E
temp.,
°C
wind,
m/s
gust,
m/s
humid.,
%
clouds,
%
prec.,
mm/h
press.,
hPa
HPBL,
m
14 may, fri
fri1423:00+11w3893100 1.3 1007331
02:00+11wsw2696100 1.5 1007344
05:00+10wsw2697100 0.4 1006272
08:00+10wsw2692100 0.8 1007298
11:00+12w3466100 0.1 1008674
14:00+17nw344373 0.1 10071969
17:00+16wsw344593 0.0 10071693
20:00+13nw13787 0.6 1007132
15 may, sat
sat1523:00+10s22925 0.4 100830
02:00+8s24950 0.4 1007100
05:00+7s310945 0.0 1006294
08:00+9ssw47855 0.0 1006432
11:00+10ssw3788100 0.3 1005809
14:00+13sw4770100 1.1 10041508
17:00+12wsw2479100 1.5 1003645
20:00+9ssw379299 2.9 1003715
16 may, sun
sun1623:00+8s2795100 0.3 1003373
02:00+8ssw311946 0.4 1003542
05:00+7ssw4119393 0.0 1003528
08:00+9ssw411865 0.0 1003668
11:00+13sw586171 0.2 10031586
14:00+12sw477893 1.6 10031378
17:00+13wsw488092 2.2 10021370
20:00+11sw278983 3.3 1002453
17 may, mon
mon1723:00+9s2596100 0.4 1003129
02:00+9s2897100 4.1 1002446
05:00+8sw4119561 0.3 1002638
08:00+9ssw41193100 0.5 1002882
11:00+9ssw51194100 0.7 10021314
14:00+10sw61391100 1.3 10031230
17:00+12sw51187100 0.8 10041292
20:00+11wsw499352 2.4 1005739
18 may, tue
tue1823:00+8sw269843 0.1 1007143
02:00+7ssw259976 0.1 1008125
05:00+8sw2899100 0.2 1008450
08:00+9wsw51196100 1.2 1010826
11:00+9wsw5109661 0.8 1013700
14:00+13wsw5107499 2.4 10131767
17:00+13w511735 1.5 10151595
20:00+12w486170 1.6 10151246